Regional Weather Roundup
Issued by NWS

Home | Current Version | Previous Version | Graphics & Text | Print | Product List | Glossary On
Versions: 1 2 3 4 5 6 7 8 9 10 11 12 13 14 15 16 17 18 19 20 21 22 23 24 25 26 27 28 29 30 31 32 33 34 35 36 37 38 39 40 41 42 43 44 45 46 47 48 49 50
000
ASUS43 KIND 241600
RWRIN

WEATHER ROUNDUP FOR INDIANA
NATIONAL WEATHER SERVICE INDIANAPOLIS IN
1200 PM EDT WED MAY 24 2017

NOTE: "FAIR" INDICATES FEW OR NO CLOUDS BELOW 12,000 FEET WITH NO
SIGNIFICANT WEATHER AND/OR OBSTRUCTIONS TO VISIBILITY.

* - STATION DOES NOT REPORT WEATHER SUCH AS PRECIPITATION OR FOG.

+ - STATION NOT QUALITY CONTROLLED BY THE NATIONAL WEATHER SERVICE.
    USE DATA WITH CAUTION...ESPECIALLY DEWPOINT AND RELATIVE
    HUMIDITY OBSERVATIONS.

INZ001>003-010>013-019-020-241700-
NORTHWEST INDIANA

CITY           SKY/WX    TMP DP  RH WIND       PRES   REMARKS
GARY /AIRPORT/ CLOUDY    55  52  88 N10       29.56F
MICHIGAN CITY+ FAIR      59  55  88 N9        29.54S
MONTICELLO +   LGT RAIN  60  56  84 NE3       29.51F
RENSSELAER +   DRIZZLE   61  54  77 N6        29.53S

$$

LMZ046-743>745-241700-
SOUTHERN LAKE MICHIGAN

STATION/POSITION TIME  TEMP    WIND        PRES    WAVE
                       AIR SEA DIR/SP/G            HT
                 (UTC) (F)     (DEG/KT/KT) (MB)    (FT)
BURNS HARBOR     1540   53      40/ 10/ 12 1001.4S
MICHIGAN CITY    1530   53      30/ 11/ 12   N/A
5NW MICH CITY    1550   52 54   30/ 12/ 16   N/A     3

$$

INZ004-005-014>016-021>024-241700-
NORTH CENTRAL INDIANA

CITY           SKY/WX    TMP DP  RH WIND       PRES   REMARKS
ELKHART        SUNNY     68  55  64 E9        29.52F
GOSHEN         FAIR      70  54  56 SE9       29.51F
SOUTH BEND     FAIR      66  32  28 E6        29.52F

$$

INZ006>009-017-018-025>027-241700-
NORTHEAST INDIANA

CITY           SKY/WX    TMP DP  RH WIND       PRES   REMARKS
ANGOLA *+      PTSUNNY   63  54  72 E7        29.54S
FORT WAYNE     CLOUDY    66  58  75 E10       29.52F
KENDALLVILLE + CLOUDY    65  53  64 E7        29.54S

$$

INZ028-029-035-036-043>045-051>053-241700-
WEST CENTRAL INDIANA

CITY           SKY/WX    TMP DP  RH WIND       PRES   REMARKS
CRAWFORDSVL +  DRIZZLE   58  58 100 NW5       29.51F
GREENCASTLE +  LGT RAIN  59  55  88 CALM      29.52S
LAFAYETTE      CLOUDY    61  57  87 VRB3      29.51F
TERRE HAUTE    LGT RAIN  59  56  89 N6        29.52S FOG

$$

INZ030>032-037>040-046>048-054>057-064-065-241700-
CENTRAL INDIANA

CITY           SKY/WX    TMP DP  RH WIND       PRES   REMARKS
ANDERSON       LGT RAIN N/A N/A N/A W6        29.53S
COLUMBUS       CLOUDY    63  57  82 W5        29.50F
INDIANAPOLIS   LGT RAIN  61  57  87 NW8       29.50F FOG
-EAGLE CREEK   LGT RAIN  62  57  83 W6        29.50S
KOKOMO +       FAIR      64  56  75 NW6       29.51F
SHELBYVILLE    LGT RAIN  65  56  72 NE5       29.49F

$$

INZ033-034-041-042-049-050-058-059-241700-
EAST CENTRAL INDIANA

CITY           SKY/WX    TMP DP  RH WIND       PRES   REMARKS
MUNCIE         TSTM      63  59  87 NW5       29.50F
RICHMOND +     LGT RAIN  63  59  88 E13       29.51F

$$

INZ060-061-067>069-081>083-085>088-241700-
SOUTHWEST INDIANA

CITY           SKY/WX    TMP DP  RH WIND       PRES   REMARKS
EVANSVILLE     RAIN      60  57  89 N8        29.49F FOG
HUNTINGBURG *+ LGT RAIN  59  58  96 N6        29.48F

$$

INZ062-063-066-070>080-084-089>092-241700-
SOUTH CENTRAL AND SOUTHEAST INDIANA

CITY           SKY/WX    TMP DP  RH WIND       PRES   REMARKS
BLOOMINGTON    LGT RAIN  60  56  86 VRB3      29.50F FOG
MADISON *+     CLOUDY    63  59  88 CALM      29.49F
SEYMOUR +      LGT RAIN  63  59  88 NW6       29.48F

$$




USA.gov is the U.S. government's official web portal to all federal, state and local government web resources and services.